Tracking 19149 objects as of 22-Apr-2018
HD Live streaming from Space Station
objects crossing your sky now

FENGYUN 1C DEB

Track FENGYUN 1C DEB now!
10-day predictions


NORAD ID: 32337
Int'l Code: 1999-025CYE
Perigee: 848.7 km
Apogee: 1,328.9 km
Inclination: 99.3 °
Period: 106.9 minutes
Semi major axis: 7459 km
RCS: 0.0137 m2 (small)
Launch date: May 10, 1999
Source: People's Republic of China (PRC)
Launch site: Taiyaun Space Center, China (TSC)

Note: This is SATELLITE DEBRIS
aabbcc
Your satellite tracking list
Your tracking list is empty




NASA's NSSDC Master Catalog

Two Line Element Set (TLE):
1 32337U 99025CYE 18109.49434331 +.00000521 +00000-0 +67070-3 0  9994
2 32337 099.2934 198.2488 0321863 343.1044 015.9566 13.47441752526214
Source of the keplerian elements: AFSPC